DLH454 KSFO-EDDF

Flight info

Callsign DLH454
Flight time N/A
Altitude 33000
Route SNTNA2 DEDHD DCT ILA DCT BKE DCT STIGS J540 YQL Q896 BORIX/N0479F350 Q896 MEETO DCT 58N100W 63N090W 66N080W/N0466F370 6730N07000W/M081F370 DCT CANEL DCT 68N060W 68N050W 6730N04000W 66N030W 64N020W DCT RATSU/N0466F370 DCT BARKU DCT GODOS DCT AMGOD DCT PETIK DCT SOGPO DCT DIXAT DIXAT1A
Aircraft A346/H-SDE2E3FGHIJ3J4J5M1RWXY/LB1D1

Departure

Time N/A
Airport San Francisco International Airport (KSFO)

Arrival

Time 2026-05-06 12:23
Airport Frankfurt Main Airport (EDDF)
Time Latitude Longitude Altitude Speed Heading
2026-05-06 11:36 52.95729 3.71589 38925 ft 482 kts 144°
2026-05-06 11:36 52.93124 3.75113 38917 ft 483 kts 141°
2026-05-06 11:37 52.88113 3.82549 38919 ft 483 kts 141°
2026-05-06 11:37 52.83099 3.89963 38908 ft 483 kts 141°
2026-05-06 11:38 52.78082 3.97355 38905 ft 483 kts 141°
2026-05-06 11:38 52.73062 4.04731 38888 ft 483 kts 141°
2026-05-06 11:39 52.68065 4.12161 38888 ft 484 kts 138°
2026-05-06 11:39 52.63467 4.20316 38894 ft 487 kts 131°
2026-05-06 11:40 52.59456 4.29326 38888 ft 489 kts 125°
2026-05-06 11:40 52.56071 4.39144 38880 ft 491 kts 119°
2026-05-06 11:41 52.52987 4.49174 38874 ft 491 kts 119°
2026-05-06 11:41 52.49896 4.59188 38872 ft 491 kts 119°
2026-05-06 11:42 52.46792 4.69182 38866 ft 491 kts 119°
2026-05-06 11:42 52.43676 4.79166 38867 ft 491 kts 119°
2026-05-06 11:43 52.40550 4.89139 38861 ft 491 kts 119°
2026-05-06 11:43 52.37422 4.99085 38860 ft 491 kts 120°
2026-05-06 11:44 52.32707 5.13989 38861 ft 491 kts 120°
2026-05-06 11:44 52.29558 5.23891 38862 ft 491 kts 120°
2026-05-06 11:45 52.26396 5.33796 38862 ft 491 kts 120°
2026-05-06 11:45 52.23225 5.43685 38848 ft 491 kts 120°
2026-05-06 11:46 52.20046 5.53567 38858 ft 490 kts 120°
2026-05-06 11:46 52.16892 5.63326 38863 ft 490 kts 120°
2026-05-06 11:47 52.13706 5.73144 38858 ft 489 kts 120°
2026-05-06 11:47 52.10516 5.82939 38865 ft 489 kts 121°
2026-05-06 11:48 52.07320 5.92714 38859 ft 489 kts 121°
2026-05-06 11:48 52.04121 6.02455 38865 ft 488 kts 121°
2026-05-06 11:49 52.00881 6.12151 38835 ft 487 kts 123°
2026-05-06 11:49 51.97122 6.21259 38838 ft 484 kts 130°
2026-05-06 11:50 51.92724 6.29498 38833 ft 481 kts 137°
2026-05-06 11:50 51.87774 6.36755 38829 ft 478 kts 144°
2026-05-06 11:51 51.82588 6.43505 38831 ft 478 kts 144°
2026-05-06 11:51 51.77407 6.50247 38831 ft 478 kts 144°
2026-05-06 11:52 51.72221 6.56979 38828 ft 478 kts 144°
2026-05-06 11:52 51.67052 6.63671 38495 ft 473 kts 144°
2026-05-06 11:53 51.64483 6.66986 37860 ft 472 kts 144°
2026-05-06 11:53 51.61921 6.70285 37301 ft 471 kts 144°
2026-05-06 11:53 51.59364 6.73576 36723 ft 470 kts 143°
2026-05-06 11:53 51.56976 6.76644 36198 ft 469 kts 143°
2026-05-06 11:54 51.54416 6.79933 35629 ft 469 kts 143°
2026-05-06 11:54 51.51869 6.83196 35037 ft 468 kts 143°
2026-05-06 11:54 51.49318 6.86459 34465 ft 467 kts 143°
2026-05-06 11:54 51.46776 6.89707 33903 ft 467 kts 143°
2026-05-06 11:55 51.44232 6.92952 33253 ft 467 kts 143°
2026-05-06 11:55 51.41693 6.96187 32630 ft 466 kts 142°
2026-05-06 11:55 51.39157 6.99418 32010 ft 464 kts 143°
2026-05-06 11:55 51.36627 7.02627 31388 ft 464 kts 142°
2026-05-06 11:56 51.34133 7.05789 30784 ft 463 kts 142°
2026-05-06 11:56 51.31587 7.09010 30147 ft 462 kts 142°
2026-05-06 11:56 51.29022 7.12098 29447 ft 461 kts 144°
2026-05-06 11:56 51.26356 7.14944 28764 ft 460 kts 148°
2026-05-06 11:57 51.23598 7.17528 28087 ft 459 kts 151°
2026-05-06 11:57 51.20759 7.19853 27401 ft 458 kts 154°
2026-05-06 11:57 51.17912 7.22115 26769 ft 456 kts 154°
2026-05-06 11:57 51.15073 7.24373 26353 ft 454 kts 154°
2026-05-06 11:58 51.12252 7.26612 25922 ft 451 kts 154°
2026-05-06 11:58 51.09460 7.28866 25490 ft 448 kts 153°
2026-05-06 11:58 51.06704 7.31141 25051 ft 445 kts 152°
2026-05-06 11:58 51.03969 7.33407 24582 ft 442 kts 152°
2026-05-06 11:59 51.01240 7.35666 23923 ft 442 kts 153°
2026-05-06 11:59 50.98511 7.37919 23264 ft 442 kts 153°
2026-05-06 11:59 50.95784 7.40169 22550 ft 440 kts 153°
2026-05-06 11:59 50.93074 7.42397 21885 ft 438 kts 153°
2026-05-06 12:00 50.90374 7.44608 21250 ft 435 kts 154°
2026-05-06 12:00 50.87690 7.46806 20611 ft 433 kts 154°
2026-05-06 12:00 50.85031 7.48983 20124 ft 427 kts 154°
2026-05-06 12:00 50.82409 7.51126 19710 ft 420 kts 155°
2026-05-06 12:01 50.79832 7.53229 19282 ft 414 kts 155°
2026-05-06 12:01 50.77289 7.55299 18860 ft 408 kts 155°
2026-05-06 12:01 50.74777 7.57341 18425 ft 404 kts 155°
2026-05-06 12:01 50.72293 7.59357 17990 ft 399 kts 156°
2026-05-06 12:02 50.69832 7.61352 17507 ft 395 kts 156°
2026-05-06 12:02 50.67396 7.63324 17073 ft 391 kts 156°
2026-05-06 12:02 50.65015 7.65250 16648 ft 388 kts 156°
2026-05-06 12:02 50.62627 7.67180 16215 ft 384 kts 156°
2026-05-06 12:03 50.60258 7.69093 15794 ft 381 kts 156°
2026-05-06 12:03 50.57912 7.70986 15373 ft 378 kts 156°
2026-05-06 12:03 50.55578 7.72866 14958 ft 375 kts 156°
2026-05-06 12:03 50.53262 7.74730 14543 ft 373 kts 156°
2026-05-06 12:04 50.51702 7.75984 14267 ft 372 kts 156°
2026-05-06 12:04 50.49403 7.77830 13853 ft 371 kts 156°
2026-05-06 12:04 50.47110 7.79669 13401 ft 368 kts 156°
2026-05-06 12:04 50.44862 7.81573 12947 ft 366 kts 153°
2026-05-06 12:05 50.42665 7.83754 12669 ft 380 kts 148°
2026-05-06 12:05 50.40530 7.86236 12404 ft 382 kts 144°
2026-05-06 12:05 50.38447 7.88817 12126 ft 380 kts 144°
2026-05-06 12:05 50.36380 7.91388 11849 ft 378 kts 144°
2026-05-06 12:06 50.34325 7.93943 11614 ft 377 kts 144°
2026-05-06 12:06 50.32272 7.96490 11340 ft 375 kts 144°
2026-05-06 12:06 50.30230 7.99017 11086 ft 373 kts 144°
2026-05-06 12:06 50.28207 8.01544 10838 ft 372 kts 142°
2026-05-06 12:07 50.26311 8.04304 10589 ft 372 kts 137°
2026-05-06 12:07 50.24602 8.07345 10336 ft 372 kts 131°
2026-05-06 12:07 50.22998 8.10558 10093 ft 372 kts 130°
2026-05-06 12:07 50.21431 8.13759 9850 ft 370 kts 130°
2026-05-06 12:08 50.19872 8.16943 9606 ft 368 kts 130°
2026-05-06 12:08 50.18335 8.20069 9341 ft 367 kts 130°
2026-05-06 12:08 50.16779 8.23219 9070 ft 365 kts 130°
2026-05-06 12:08 50.15230 8.26348 8814 ft 364 kts 130°
2026-05-06 12:09 50.13679 8.29472 8534 ft 364 kts 130°
2026-05-06 12:09 50.12128 8.32595 8259 ft 364 kts 130°
2026-05-06 12:09 50.10826 8.35972 7962 ft 366 kts 111°
2026-05-06 12:09 50.10458 8.39900 7724 ft 369 kts 88°
2026-05-06 12:10 50.11057 8.43786 7470 ft 370 kts 70°
2026-05-06 12:10 50.11988 8.47531 7215 ft 370 kts 69°
2026-05-06 12:10 50.12924 8.51257 6993 ft 368 kts 70°
2026-05-06 12:10 50.13842 8.54980 6733 ft 366 kts 70°
2026-05-06 12:11 50.14740 8.58689 6486 ft 365 kts 70°
2026-05-06 12:11 50.15625 8.62391 6237 ft 364 kts 70°
2026-05-06 12:11 50.16504 8.66084 5983 ft 362 kts 71°
2026-05-06 12:11 50.17378 8.69766 5715 ft 361 kts 71°
2026-05-06 12:12 50.18244 8.73425 5453 ft 357 kts 71°
2026-05-06 12:12 50.19093 8.77013 5197 ft 347 kts 71°
2026-05-06 12:12 50.19920 8.80504 4995 ft 337 kts 71°
2026-05-06 12:12 50.20709 8.83857 4971 ft 320 kts 71°
2026-05-06 12:13 50.21458 8.87043 4972 ft 305 kts 71°
2026-05-06 12:13 50.22169 8.90079 4971 ft 289 kts 71°
2026-05-06 12:13 50.22782 8.92984 4946 ft 273 kts 83°
2026-05-06 12:13 50.22652 8.95802 4928 ft 251 kts 114°
2026-05-06 12:14 50.21785 8.97997 4975 ft 227 kts 139°
2026-05-06 12:14 50.20558 8.99295 4994 ft 203 kts 160°
2026-05-06 12:14 50.19296 9.00038 4952 ft 186 kts 164°
2026-05-06 12:14 50.18107 9.00676 4953 ft 180 kts 165°
2026-05-06 12:15 50.16923 9.01198 4956 ft 168 kts 178°
2026-05-06 12:15 50.15835 9.01125 4929 ft 152 kts 196°
2026-05-06 12:15 50.14899 9.00434 4945 ft 151 kts 221°
2026-05-06 12:15 50.14165 8.99251 4985 ft 152 kts 229°
2026-05-06 12:16 50.13533 8.97931 4969 ft 152 kts 236°
2026-05-06 12:16 50.13021 8.96486 4976 ft 152 kts 242°
2026-05-06 12:16 50.12618 8.94957 4982 ft 152 kts 247°
2026-05-06 12:16 50.12276 8.93395 4969 ft 152 kts 248°
2026-05-06 12:17 50.11935 8.91831 4833 ft 152 kts 248°
2026-05-06 12:17 50.11586 8.90276 4627 ft 151 kts 247°
2026-05-06 12:17 50.11230 8.88736 4410 ft 151 kts 248°
2026-05-06 12:17 50.10870 8.87201 4213 ft 150 kts 247°
2026-05-06 12:18 50.10507 8.85676 4006 ft 150 kts 247°
2026-05-06 12:18 50.10140 8.84156 3792 ft 149 kts 247°
2026-05-06 12:18 50.09774 8.82638 3581 ft 150 kts 246°
2026-05-06 12:18 50.09404 8.81117 3394 ft 150 kts 246°
2026-05-06 12:19 50.09036 8.79604 3179 ft 149 kts 247°
2026-05-06 12:19 50.08674 8.78109 2988 ft 149 kts 247°
2026-05-06 12:19 50.08312 8.76606 2807 ft 147 kts 246°
2026-05-06 12:19 50.07950 8.75111 2604 ft 149 kts 247°
2026-05-06 12:20 50.07672 8.73549 2467 ft 149 kts 258°
2026-05-06 12:20 50.07543 8.71958 2350 ft 148 kts 258°
2026-05-06 12:20 50.07330 8.70397 2163 ft 145 kts 251°
2026-05-06 12:20 50.07009 8.68897 1919 ft 147 kts 248°
2026-05-06 12:21 50.06643 8.67399 1739 ft 150 kts 247°
2026-05-06 12:21 50.06275 8.65911 1545 ft 143 kts 246°
2026-05-06 12:21 50.05914 8.64497 1207 ft 140 kts 247°
2026-05-06 12:21 50.05551 8.63059 947 ft 146 kts 248°
2026-05-06 12:22 50.05204 8.61580 845 ft 143 kts 249°
2026-05-06 12:22 50.04863 8.60155 661 ft 141 kts 248°
2026-05-06 12:22 50.04524 8.58714 432 ft 140 kts 247°
2026-05-06 12:22 50.04204 8.57385 375 ft 111 kts 248°
2026-05-06 12:23 50.04030 8.56681 366 ft 19 kts 249°
2026-05-06 12:23 50.03990 8.56463 362 ft 22 kts 266°
2026-05-06 12:23 50.04012 8.56211 366 ft 23 kts 294°
2026-05-06 12:23 50.04121 8.56247 367 ft 18 kts 67°
2026-05-06 12:24 50.04164 8.56418 366 ft 18 kts 69°
2026-05-06 12:24 50.04193 8.56537 368 ft 10 kts 70°
2026-05-06 12:24 50.04219 8.56652 370 ft 12 kts 70°
2026-05-06 12:24 50.04257 8.56779 373 ft 13 kts 43°
2026-05-06 12:25 50.04354 8.56826 372 ft 16 kts
2026-05-06 12:25 50.04472 8.56861 368 ft 15 kts 12°
2026-05-06 12:25 50.04537 8.56909 371 ft 11 kts 53°
2026-05-06 12:25 50.04570 8.56988 370 ft 5 kts 58°
2026-05-06 12:26 50.04586 8.57030 372 ft 2 kts 59°
2026-05-06 12:26 50.04593 8.57047 370 ft 0 kts 59°
2026-05-06 12:26 50.04593 8.57048 370 ft 0 kts 59°